Airfield :
LOGIN :

Register | Disclaimer

   EN    FR    IT 

 










Legend :    VFR   Marginal VFR   IFR   Intensive IFR   Very Intensive IFR
Visi :
Ceiling :
>= 8 km
>= 3000ft
5 to 8 km
1000 to 3000 ft
1500m to 5 km
500 to 1000 ft
800 to 1500m
200 to 500 ft
< 800m
< 200 ft
Symbols :   Thunderstorms  Fog  Heavy snow  Heavy precipitations  Wind > 20 kt
SIGMETs :     Misc.  Thunderstorms  Icing  Turbulence  Mountain Waves  Volcanic Ashes







- Airport Elevation : 1202 ft
- IATA code : IGS


ETSI - Ingolstadt

CURRENT METAR :
  • 180437Z 00000KT 0500 R25/0550 FG FEW001 04/04 Q1019 RED RED

EXPIRED METARs :
  • 180420Z 00000KT 0100 R25/0550/ FG 04/04 Q1019 RED RED
  • 180320Z 00000KT 0050 FG 05/04 Q1019 RED
  • 180220Z AUTO 00000KT 0050 // ////// 04/04 Q1019 ///

TAF TAF ETSI
Valid from the 18 at 05:00 until the 18 at 14:00 UTC


180415Z 1805/1814 VRB01KT 0100 FG VV001
BECMG 1807/1809 05005KT 9999 NSW FEW030 BKN220
No reported NOTAMs for that airfield.



MET'MAP, your aeronautical weather chart ! - Copyright ORBIFLY December 2007 - Disclaimer

ORBIFLY MET'MAP TEAM :

Programming & Development : Alexandra Zaïnal
Concept & Development : Baudouin d'Aumeries
Co-Development & Prog : Marc-Olivier Méhu
Technical & hardware support : Manuel Goepfert

Contact : metmap@orbifly.com




SOURCES & CREDITS :

   NOAA